When you browse on this site, cookies collect data to enhance your experience and personalize the content and advertising you see.
Visit our Privacy Policy to learn more. By continuing to use the site, you agree to this use of cookies and data.
  • In Sweden
  • List of Countries
  • For 7 days
  • Water Temperature
  • Satellite Maps
  • Weather Map
  • Weather Widgets
  • user-avatar
    Login

    Hourly Weather Banamba

    Today, 18 July, Thursday

    Time Temperature Precipitation Wind Pressure Humidity
    00:00 +30°C° 0 mm 3 mps 727 mmHg 58%
    01:00 +30°C° 0 mm 3 mps 726 mmHg 60%
    02:00 +29°C° 0 mm 3 mps 726 mmHg 62%
    03:00 +29°C° 0 mm 2 mps 725 mmHg 64%
    04:00 +28°C° 0 mm 2 mps 725 mmHg 67%
    05:00 +28°C° 0 mm 2 mps 726 mmHg 69%
    06:00 +27°C° 0 mm 2 mps 726 mmHg 72%
    07:00 +29°C° 0 mm 3 mps 726 mmHg 68%
    08:00 +30°C° 0 mm 4 mps 727 mmHg 65%
    09:00 +32°C° 0 mm 4 mps 727 mmHg 61%
    10:00 +33°C° 0.6 mm 4 mps 727 mmHg 56%
    11:00 +35°C° 0.6 mm 5 mps 727 mmHg 52%
    12:00 +36°C° 0.6 mm 5 mps 727 mmHg 48%
    13:00 +36°C° 0 mm 4 mps 726 mmHg 46%
    14:00 +37°C° 0 mm 4 mps 725 mmHg 44%
    15:00 +37°C° 0 mm 3 mps 725 mmHg 41%
    16:00 +37°C° 0 mm 3 mps 724 mmHg 43%
    17:00 +36°C° 0 mm 4 mps 724 mmHg 44%
    18:00 +36°C° 0 mm 4 mps 724 mmHg 45%
    19:00 +35°C° 0 mm 4 mps 724 mmHg 51%
    20:00 +33°C° 0 mm 4 mps 725 mmHg 56%
    21:00 +32°C° 0 mm 4 mps 725 mmHg 62%
    22:00 +30°C° 0 mm 4 mps 725 mmHg 64%
    23:00 +30°C° 0 mm 5 mps 725 mmHg 67%

    Tomorrow, 19 July, Friday

    Time Temperature Precipitation Wind Pressure Humidity
    00:00 +29°C° 0 mm 5 mps 726 mmHg 69%
    01:00 +29°C° 0.1 mm 4 mps 725 mmHg 70%
    02:00 +28°C° 0.1 mm 4 mps 725 mmHg 71%
    03:00 +28°C° 0.1 mm 4 mps 725 mmHg 72%
    04:00 +28°C° 0 mm 4 mps 725 mmHg 73%
    05:00 +28°C° 0 mm 4 mps 725 mmHg 75%
    06:00 +27°C° 0 mm 4 mps 725 mmHg 76%
    07:00 +28°C° 0 mm 5 mps 725 mmHg 72%
    08:00 +29°C° 0 mm 5 mps 726 mmHg 69%
    09:00 +32°C° 0 mm 6 mps 726 mmHg 65%
    10:00 +33°C° 0 mm 6 mps 726 mmHg 60%
    11:00 +34°C° 0 mm 6 mps 726 mmHg 55%
    12:00 +36°C° 0 mm 5 mps 726 mmHg 49%
    13:00 +37°C° 0 mm 5 mps 725 mmHg 47%
    14:00 +37°C° 0 mm 4 mps 725 mmHg 44%
    15:00 +38°C° 0 mm 4 mps 724 mmHg 41%
    16:00 +38°C° 0 mm 4 mps 724 mmHg 41%
    17:00 +37°C° 0 mm 3 mps 723 mmHg 42%
    18:00 +37°C° 0 mm 3 mps 723 mmHg 42%
    19:00 +36°C° 0 mm 4 mps 723 mmHg 47%
    20:00 +34°C° 0 mm 5 mps 724 mmHg 51%
    21:00 +33°C° 0 mm 5 mps 724 mmHg 56%
    22:00 +32°C° 2 mm 6 mps 724 mmHg 62%
    23:00 +30°C° 2 mm 6 mps 725 mmHg 69%

    Day after tomorrow, 20 July, Saturday

    Time Temperature Precipitation Wind Pressure Humidity
    00:00 +29°C° 2 mm 6 mps 725 mmHg 75%
    01:00 +27°C° 8.7 mm 6 mps 725 mmHg 79%
    02:00 +26°C° 8.7 mm 6 mps 725 mmHg 83%
    03:00 +23°C° 8.7 mm 5 mps 725 mmHg 87%
    04:00 +23°C° 2.5 mm 5 mps 725 mmHg 83%
    05:00 +23°C° 2.5 mm 4 mps 725 mmHg 80%
    06:00 +23°C° 2.5 mm 4 mps 725 mmHg 77%
    07:00 +25°C° 0 mm 4 mps 726 mmHg 77%
    08:00 +26°C° 0 mm 4 mps 726 mmHg 76%
    09:00 +26°C° 0 mm 4 mps 726 mmHg 75%
    10:00 +28°C° 0 mm 4 mps 727 mmHg 68%
    11:00 +30°C° 0 mm 3 mps 727 mmHg 61%
    12:00 +31°C° 0 mm 2 mps 728 mmHg 53%
    13:00 +33°C° 0 mm 3 mps 727 mmHg 51%
    14:00 +34°C° 0 mm 3 mps 726 mmHg 49%
    15:00 +34°C° 0 mm 4 mps 726 mmHg 47%
    16:00 +33°C° 0 mm 4 mps 725 mmHg 50%
    17:00 +33°C° 0 mm 4 mps 725 mmHg 52%
    18:00 +32°C° 0 mm 4 mps 725 mmHg 54%
    19:00 +30°C° 0 mm 3 mps 725 mmHg 57%
    20:00 +30°C° 0 mm 3 mps 726 mmHg 59%
    21:00 +29°C° 0 mm 2 mps 726 mmHg 61%
    22:00 +28°C° 0.2 mm 2 mps 726 mmHg 64%
    23:00 +28°C° 0.2 mm 3 mps 726 mmHg 66%

    21 July, Sunday

    Time Temperature Precipitation Wind Pressure Humidity
    00:00 +27°C° 0.2 mm 3 mps 726 mmHg 69%
    01:00 +27°C° 0.1 mm 3 mps 726 mmHg 70%
    02:00 +26°C° 0.1 mm 3 mps 726 mmHg 71%
    03:00 +26°C° 0.1 mm 3 mps 725 mmHg 73%
    04:00 +25°C° 0.4 mm 3 mps 725 mmHg 75%
    05:00 +25°C° 0.4 mm 3 mps 726 mmHg 78%
    06:00 +24°C° 0.4 mm 2 mps 726 mmHg 80%
    07:00 +26°C° 0.3 mm 3 mps 726 mmHg 77%
    08:00 +27°C° 0.3 mm 4 mps 727 mmHg 74%
    09:00 +28°C° 0.3 mm 5 mps 728 mmHg 72%
    10:00 +29°C° 0 mm 4 mps 728 mmHg 68%
    11:00 +29°C° 0 mm 3 mps 728 mmHg 65%
    12:00 +30°C° 0 mm 2 mps 728 mmHg 62%
    13:00 +30°C° 0 mm 2 mps 727 mmHg 60%
    14:00 +31°C° 0 mm 2 mps 727 mmHg 58%
    15:00 +31°C° 0 mm 2 mps 726 mmHg 56%
    16:00 +31°C° 0 mm 2 mps 725 mmHg 56%
    17:00 +32°C° 0 mm 2 mps 725 mmHg 56%
    18:00 +33°C° 0 mm 3 mps 725 mmHg 55%
    19:00 +30°C° 0.1 mm 3 mps 725 mmHg 61%
    20:00 +29°C° 0.1 mm 3 mps 726 mmHg 66%
    21:00 +28°C° 0.1 mm 3 mps 726 mmHg 72%
    22:00 +28°C° 0.2 mm 3 mps 726 mmHg 74%
    23:00 +27°C° 0.2 mm 3 mps 726 mmHg 77%

    22 July, Monday

    Time Temperature Precipitation Wind Pressure Humidity
    00:00 +27°C° 0.2 mm 3 mps 726 mmHg 80%
    01:00 +26°C° 1.7 mm 3 mps 726 mmHg 82%
    02:00 +26°C° 1.7 mm 3 mps 725 mmHg 85%
    03:00 +25°C° 1.7 mm 3 mps 725 mmHg 87%
    04:00 +25°C° 0.7 mm 3 mps 725 mmHg 88%
    05:00 +25°C° 0.7 mm 3 mps 725 mmHg 88%
    06:00 +25°C° 0.7 mm 3 mps 726 mmHg 88%
    07:00 +25°C° 0.2 mm 3 mps 726 mmHg 86%
    08:00 +26°C° 0.2 mm 3 mps 727 mmHg 83%
    09:00 +27°C° 0.2 mm 3 mps 727 mmHg 81%
    10:00 +28°C° 0 mm 4 mps 727 mmHg 74%
    11:00 +30°C° 0 mm 4 mps 727 mmHg 67%
    12:00 +33°C° 0 mm 5 mps 726 mmHg 59%
    13:00 +33°C° 0 mm 4 mps 726 mmHg 59%
    14:00 +33°C° 0 mm 4 mps 725 mmHg 58%
    15:00 +34°C° 0 mm 4 mps 724 mmHg 57%
    16:00 +33°C° 0 mm 4 mps 724 mmHg 58%
    17:00 +33°C° 0 mm 4 mps 724 mmHg 58%
    18:00 +33°C° 0 mm 3 mps 724 mmHg 58%
    19:00 +31°C° 0 mm 3 mps 724 mmHg 61%
    20:00 +31°C° 0 mm 3 mps 725 mmHg 64%
    21:00 +30°C° 0 mm 3 mps 725 mmHg 67%
    22:00 +29°C° 0 mm 3 mps 725 mmHg 69%
    23:00 +29°C° 0 mm 3 mps 725 mmHg 71%

    23 July, Tuesday

    Time Temperature Precipitation Wind Pressure Humidity
    00:00 +28°C° 0 mm 4 mps 725 mmHg 72%
    01:00 +28°C° 0 mm 4 mps 725 mmHg 74%
    02:00 +28°C° 0 mm 4 mps 724 mmHg 76%
    03:00 +27°C° 0 mm 4 mps 724 mmHg 78%
    04:00 +27°C° 0.1 mm 4 mps 724 mmHg 80%
    05:00 +27°C° 0.1 mm 3 mps 724 mmHg 82%
    06:00 +26°C° 0.1 mm 3 mps 725 mmHg 84%
    07:00 +27°C° 0.4 mm 3 mps 725 mmHg 80%
    08:00 +28°C° 0.4 mm 3 mps 726 mmHg 76%
    09:00 +29°C° 0.4 mm 3 mps 726 mmHg 72%
    10:00 +29°C° 1.7 mm 4 mps 726 mmHg 72%
    11:00 +29°C° 1.7 mm 5 mps 726 mmHg 72%
    12:00 +29°C° 1.7 mm 6 mps 726 mmHg 72%
    13:00 +30°C° 0 mm 5 mps 725 mmHg 67%
    14:00 +32°C° 0 mm 4 mps 725 mmHg 63%
    15:00 +33°C° 0 mm 3 mps 724 mmHg 59%
    16:00 +31°C° 0 mm 3 mps 724 mmHg 60%
    17:00 +31°C° 0 mm 3 mps 724 mmHg 62%
    18:00 +30°C° 0 mm 4 mps 724 mmHg 64%
    19:00 +29°C° 0 mm 3 mps 725 mmHg 67%
    20:00 +28°C° 0 mm 3 mps 725 mmHg 71%
    21:00 +28°C° 0 mm 3 mps 725 mmHg 75%
    22:00 +27°C° 0 mm 3 mps 725 mmHg 76%
    23:00 +27°C° 0 mm 3 mps 725 mmHg 77%
    Show more